#timestamp,LO_Frequency,Hit,StdDev 
1586538015.7,286046998.6,P
1586538035.5,286046997.4,N
1586538055.3,286046997.5,N
1586538075.2,286046999.4,N
1586538095.0,286046999.8,N
1586538095.9,286046999.8,N
1586538115.8,286047002.8,N
1586538135.6,286046998.7,N
1586538155.4,286047000.6,N
1586538175.3,286047000.0,N
1586538195.1,286047000.9,N
1586538215.9,286046996.6,N
1586538235.7,286046995.3,N
1586538255.5,286046997.9,N
1586538275.4,286046997.1,N
1586538295.2,286047001.1,N
1586538315.0,286047000.6,N
1586538315.9,286047000.6,N
1586538335.8,286046999.9,N
1586538355.6,286047000.8,N
1586538375.5,286047001.8,N
1586538395.3,286047001.6,N
1586538415.1,286047002.8,N
1586538435.9,286046998.8,N
1586538455.7,286047002.3,N
1586538475.5,286047002.3,N
1586538495.4,286047003.6,N
1586538515.2,286046999.6,N
1586538535.1,286046998.4,N
1586538536.0,286046998.4,N
1586538555.8,286047003.7,N
1586538575.6,286047005.9,N
1586538595.5,286047006.8,N
1586538615.3,286047007.6,Y
1586538635.2,286047005.6,P
1586538655.9,286047005.2,N
1586538675.7,286047007.1,P
1586538695.6,286047006.1,N
1586538715.4,286047004.6,N
1586538735.3,286047007.4,Y
1586538755.1,286046999.8,P
1586538756.0,286046999.8,N
1586538775.8,286046998.1,N
1586538795.7,286046998.7,N
1586538815.5,286046999.1,N
1586538835.3,286046997.2,N
1586538855.2,286046996.6,N
1586538875.0,286046998.1,N
1586538875.9,286046998.1,N
1586538895.8,286046997.3,N
1586538915.6,286046994.3,N
1586538935.4,286046995.3,N
1586538955.3,286046999.5,N
1586538975.1,286046998.2,N
1586538995.9,286047000.8,N
1586539015.7,286046999.9,N
1586539035.5,286047000.3,N
1586539055.4,286046998.6,N
1586539075.2,286047000.3,N
1586539095.0,286047001.2,N
1586539095.9,286047001.2,N
1586539115.8,286047000.3,N
1586539135.6,286046999.8,N
1586539155.5,286046998.4,N
1586539175.3,286047001.1,N
1586539195.1,286047000.5,N
1586539215.9,286046996.5,N
1586539235.7,286046998.5,N
1586539255.6,286046999.5,N
1586539275.4,286046998.9,N
1586539295.2,286046998.2,N
1586539315.1,286047000.0,N
1586539316.0,286047000.0,N
1586539335.8,286047001.1,N
1586539355.7,286046999.6,N
1586539375.5,286046998.7,N
1586539395.3,286047001.1,N
1586539415.2,286047000.0,N
1586539435.0,286047001.5,N
1586539435.9,286047001.5,N
1586539455.8,286047003.6,N
1586539475.6,286047002.7,N
1586539495.4,286047002.0,N
1586539515.3,286046999.7,N
1586539535.1,286046999.7,N
1586539555.8,286047000.1,N
1586539575.7,286047000.6,N
1586539595.5,286047000.9,N
1586539615.4,286047000.1,N
1586539635.2,286047002.2,N
1586539655.0,286047002.1,N
1586539655.9,286047002.1,N
1586539675.8,286046999.7,N
1586539695.6,286047000.3,N
1586539715.5,286047000.3,N
1586539735.3,286047002.4,N
1586539755.1,286047003.5,N
1586539775.9,286047004.4,Y
1586539795.7,286047000.8,P
1586539815.6,286047002.6,P
1586539835.4,286047002.8,P
1586539855.2,286047002.6,N
1586539875.1,286047001.9,N
1586539876.0,286047001.9,N
1586539895.8,286047002.9,Y
1586539915.7,286047002.0,P
1586539935.5,286047002.5,P
1586539955.3,286047001.4,P
1586539975.2,286047001.5,Y
1586539995.0,286046996.7,P
1586539995.9,286046996.7,N
1586540015.8,286046995.1,N
1586540035.6,286046995.5,N
1586540055.4,286046995.7,N
1586540075.3,286046993.4,N
1586540095.1,286046997.3,N
1586540115.8,286046999.2,N
1586540135.7,286046996.7,N
1586540155.5,286046997.5,N
1586540175.4,286046997.9,N
1586540195.2,286046996.6,N
1586540215.0,286046999.4,N
1586540215.9,286046999.4,N
1586540235.8,286046998.8,N
1586540255.6,286046996.5,N
1586540275.5,286046999.0,N
1586540295.3,286046998.7,N
1586540315.1,286046999.2,N
1586540335.9,286046999.2,N
1586540355.7,286046998.9,N
1586540375.5,286046997.8,N
1586540395.4,286046997.4,N
1586540415.2,286046997.4,N
1586540435.1,286047000.9,N
1586540436.0,286047000.9,N
1586540455.8,286047002.4,N
1586540475.6,286047000.7,N
1586540495.5,286047000.0,N
1586540515.3,286047000.8,N
1586540535.2,286047000.2,N
1586540555.9,286047002.8,N
1586540575.7,286047001.2,N
1586540595.6,286046999.3,N
1586540615.4,286047001.2,N
1586540635.3,286046998.9,N
1586540655.1,286046997.9,N
1586540656.0,286046997.9,N
1586540675.8,286046995.4,N
1586540695.7,286046997.0,N
1586540715.5,286046997.9,N
1586540735.4,286046995.1,N
1586540755.2,286046996.4,N
1586540775.0,286046997.2,N
1586540775.9,286046997.2,N
1586540795.8,286046999.0,N
1586540815.6,286046998.7,N
1586540835.4,286046998.0,N
1586540855.3,286046997.6,N
1586540875.1,286046997.6,N
1586540895.9,286046997.7,N
1586540915.7,286046995.7,N
1586540935.5,286046994.9,N
1586540955.4,286046996.5,N
1586540975.2,286046999.5,N
1586540995.0,286046996.5,N
1586540996.0,286046996.5,N
1586541015.8,286046998.9,N
1586541035.6,286047001.2,N
1586541055.5,286047000.2,N
1586541075.3,286047001.0,N
1586541095.1,286046997.4,N
1586541115.9,286046996.1,N
1586541135.7,286046995.9,N
1586541155.6,286046995.3,N
1586541175.4,286046998.4,N
1586541195.2,286047000.7,N
1586541215.1,286047000.0,N
1586541216.0,286047000.0,N
1586541235.8,286046999.8,N
1586541255.7,286047002.7,N
1586541275.5,286046999.9,N
1586541295.3,286046998.8,N
1586541315.2,286046998.8,N
1586541335.0,286046999.4,N
1586541335.9,286046999.4,N
1586541355.7,286046999.2,N
1586541375.6,286046998.7,N
1586541395.4,286046998.3,N
1586541415.3,286046996.9,N
1586541435.1,286046996.7,N
1586541436.0,286046996.7,N
1586541455.8,286046999.3,N
1586541475.7,286047001.1,N
1586541495.5,286047000.7,N
1586541515.4,286046998.9,N
1586541535.2,286046998.3,N
1586541555.0,286046998.4,N
1586541555.9,286046998.4,N
1586541575.8,286046996.7,N
1586541595.6,286046997.6,N
